Tracking 30995 objects as of 5-Jul-2025
HD Live streaming from Space Station
objects crossing your sky now

HELIOS 1A

Track HELIOS 1A now!
10-day predictions
HELIOS 1A is classified as:


NORAD ID: 23605
Int'l Code: 1995-033A
Perigee: 553.3 km
Apogee: 574.7 km
Inclination: 98.3 °
Period: 95.8 minutes
Semi major axis: 6935 km
RCS: Unknown
Launch date: July 7, 1995
Source: France (FR)
Launch site: FRENCH GUIANA (FRGUI)

Optical reconnaissance; cannot see through clouds or at night.
Your satellite tracking list
Your tracking list is empty




NASA's NSSDC Master Catalog

Two Line Element Set (TLE):
1 23605U 95033A   25183.91144408 0.00002700  00000-0  19915-3 0    06
2 23605  98.2679  47.1904 0015406 117.1834 242.8165 15.03249080    05
Source of the keplerian elements: McCants